Humidity-temperature Sensor

Selected Measurement Type: Relative Humidity

 
Relative Humidity [%]     6 entries per hour
Showing data from 3/27/2016 (00:00:00 Z) to 3/20/2016 (00:01:00 Z)
Previous Next [ Day | 3-Days | 7-Days ]
First Last
Prev [ Day | 3-Days | 7-Days ] Next
First Last

Start Time:     :
End Time:     :     
Time (in GMT) :00 :50 :40 :30 :20 :10
Previous Next [ Day | 3-Days | 7-Days ]
First Last
Prev [ Day | 3-Days | 7-Days ] Next
First Last


123 => good data
MM => data is determined as missing
-- => data not received/configured
Back to Top Back to Top
3/27/2016 00:00 to 23:10 84.86 85.30 85.24 85.63 84.78 82.99
3/26/2016 23:00 to 22:10 83.60 82.62 82.29 81.95 82.41 80.60
3/26/2016 22:00 to 21:10 81.62 81.44 80.65 80.92 78.44 78.26
3/26/2016 21:00 to 20:10 79.25 79.27 80.29 79.98 79.01 79.09
3/26/2016 20:00 to 19:10 80.56 79.77 78.94 78.92 80.73 81.27
3/26/2016 19:00 to 18:10 80.56 79.28 80.09 78.73 80.27 82.70
3/26/2016 18:00 to 17:10 81.91 82.24 82.56 82.60 83.05 83.10
3/26/2016 17:00 to 16:10 81.97 80.94 82.14 82.85 82.20 83.43
3/26/2016 16:00 to 15:10 84.16 84.38 83.95 84.07 85.36 85.23
3/26/2016 15:00 to 14:10 84.03 84.05 82.95 81.93 82.20 82.74
3/26/2016 14:00 to 13:10 83.78 86.25 84.57 85.30 86.02 87.89
3/26/2016 13:00 to 12:10 88.21 88.20 88.87 88.93 88.91 88.87
3/26/2016 12:00 to 11:10 88.85 88.62 87.96 88.29 88.14 87.64
3/26/2016 11:00 to 10:10 87.77 88.08 87.87 87.39 87.96 87.52
3/26/2016 10:00 to 9:10 87.31 87.87 87.25 87.13 87.02 86.42
3/26/2016 09:00 to 8:10 86.73 86.31 85.75 85.80 86.23 85.59
3/26/2016 08:00 to 7:10 85.34 85.05 85.51 84.92 85.23 86.09
3/26/2016 07:00 to 6:10 85.30 85.61 85.86 85.98 85.63 85.69
3/26/2016 06:00 to 5:10 85.77 85.44 85.53 85.90 84.88 84.11
3/26/2016 05:00 to 4:10 83.99 83.70 83.74 83.20 82.78 82.66
3/26/2016 04:00 to 3:10 82.74 81.85 81.87 81.91 81.52 81.54
3/26/2016 03:00 to 2:10 81.89 81.29 80.81 80.94 81.10 81.77
3/26/2016 02:00 to 1:10 81.29 80.75 79.81 80.44 80.73 80.35
3/26/2016 01:00 to 0:10 79.92 80.04 80.13 79.23 80.00 79.21
3/26/2016 00:00 to 23:10 78.90 78.24 78.30 79.13 78.34 78.57
3/25/2016 23:00 to 22:10 77.57 78.61 78.67 79.50 79.32 79.82
3/25/2016 22:00 to 21:10 80.98 81.60 82.12 82.27 83.26 82.04
3/25/2016 21:00 to 20:10 82.45 81.79 82.02 81.12 81.12 81.52
3/25/2016 20:00 to 19:10 82.45 82.18 81.85 82.43 81.89 82.25
3/25/2016 19:00 to 18:10 82.45 82.08 84.30 83.45 83.95 84.47
3/25/2016 18:00 to 17:10 84.92 85.24 84.74 84.18 84.84 84.97
3/25/2016 17:00 to 16:10 84.92 85.21 86.00 85.38 85.94 86.83
3/25/2016 16:00 to 15:10 86.44 86.86 87.37 87.81 87.08 87.21
3/25/2016 15:00 to 14:10 87.44 87.08 87.23 88.23 88.48 88.89
3/25/2016 14:00 to 13:10 88.29 87.94 88.75 89.28 89.76 89.22
3/25/2016 13:00 to 12:10 89.01 89.64 89.20 89.72 90.34 90.09
3/25/2016 12:00 to 11:10 90.20 90.22 91.01 90.84 90.63 90.34
3/25/2016 11:00 to 10:10 90.18 89.80 90.59 90.49 90.22 90.20
3/25/2016 10:00 to 9:10 90.22 91.67 90.88 89.22 89.04 89.62
3/25/2016 09:00 to 8:10 88.85 89.01 88.93 89.12 88.72 88.58
3/25/2016 08:00 to 7:10 88.21 87.71 86.65 86.79 86.13 85.92
3/25/2016 07:00 to 6:10 87.15 86.77 87.08 87.17 87.23 87.31
3/25/2016 06:00 to 5:10 87.35 87.96 87.00 86.56 86.54 87.17
3/25/2016 05:00 to 4:10 87.37 87.40 87.00 86.25 86.42 85.34
3/25/2016 04:00 to 3:10 84.53 84.40 83.97 83.76 85.84 86.25
3/25/2016 03:00 to 2:10 86.36 85.90 85.80 86.48 84.70 84.88
3/25/2016 02:00 to 1:10 83.86 83.30 82.25 81.58 80.31 81.08
3/25/2016 01:00 to 0:10 81.85 81.14 81.95 81.41 81.77 83.37
3/25/2016 00:00 to 23:10 82.04 82.14 81.60 80.94 81.87 82.22
3/24/2016 23:00 to 22:10 81.08 81.66 81.73 81.27 82.04 81.56
3/24/2016 22:00 to 21:10 82.52 83.64 82.49 81.52 83.41 83.82
3/24/2016 21:00 to 20:10 83.18 83.03 84.30 84.92 84.32 82.83
3/24/2016 20:00 to 19:10 83.18 81.00 84.65 87.54 87.60 86.05
3/24/2016 19:00 to 18:10 84.14 84.34 85.34 86.00 85.55 85.67
3/24/2016 18:00 to 17:10 85.42 86.02 87.06 87.19 87.08 87.33
3/24/2016 17:00 to 16:10 87.08 86.50 86.73 86.40 86.09 86.13
3/24/2016 16:00 to 15:10 86.50 86.40 86.05 85.84 87.19 86.96
3/24/2016 15:00 to 14:10 86.90 87.23 87.46 87.15 86.92 87.48
3/24/2016 14:00 to 13:10 88.02 88.23 87.62 87.42 87.27 87.87
3/24/2016 13:00 to 12:10 87.98 88.87 89.04 88.87 88.47 89.14
3/24/2016 12:00 to 11:10 88.66 87.46 88.00 88.89 87.77 87.89
3/24/2016 11:00 to 10:10 88.21 88.16 88.83 88.83 89.14 88.68
3/24/2016 10:00 to 9:10 89.33 89.29 88.16 87.52 89.18 89.29
3/24/2016 09:00 to 8:10 89.12 89.12 89.14 89.26 89.49 88.68
3/24/2016 08:00 to 7:10 88.60 87.83 87.66 87.87 87.64 87.62
3/24/2016 07:00 to 6:10 87.60 87.17 88.02 88.43 88.27 87.67
3/24/2016 06:00 to 5:10 88.47 89.04 88.37 88.39 88.50 88.00
3/24/2016 05:00 to 4:10 87.94 87.69 86.75 88.66 87.94 89.02
3/24/2016 04:00 to 3:10 87.69 88.89 89.43 89.68 88.81 88.39
3/24/2016 03:00 to 2:10 89.10 88.99 88.77 88.00 86.83 86.48
3/24/2016 02:00 to 1:10 86.48 87.96 86.34 86.61 87.15 87.33
3/24/2016 01:00 to 0:10 87.54 85.94 87.25 85.94 86.15 86.27
3/24/2016 00:00 to 23:10 86.73 86.07 85.57 86.65 84.36 85.51
3/23/2016 23:00 to 22:10 85.51 85.13 83.60 84.53 84.36 83.95
3/23/2016 22:00 to 21:10 84.41 83.91 85.09 85.53 86.32 86.83
3/23/2016 21:00 to 20:10 85.94 85.07 86.48 85.13 85.50 87.04
3/23/2016 20:00 to 19:10 86.21 87.17 86.73 87.19 87.87 86.00
3/23/2016 19:00 to 18:10 86.67 87.35 87.02 86.09 86.73 85.57
3/23/2016 18:00 to 17:10 85.84 87.35 87.67 87.25 88.14 87.21
3/23/2016 17:00 to 16:10 88.58 86.83 87.77 87.17 87.73 87.69
3/23/2016 16:00 to 15:10 88.18 89.02 88.60 89.26 87.58 87.19
3/23/2016 15:00 to 14:10 87.33 86.96 86.98 87.04 87.25 86.77
3/23/2016 14:00 to 13:10 87.46 87.89 87.71 88.33 87.81 87.83
3/23/2016 13:00 to 12:10 87.79 88.10 87.62 87.75 87.37 87.44
3/23/2016 12:00 to 11:10 87.73 88.43 87.42 88.16 87.67 87.85
3/23/2016 11:00 to 10:10 87.54 88.37 87.66 87.75 87.42 87.31
3/23/2016 10:00 to 9:10 87.79 87.73 87.52 86.96 87.19 87.35
3/23/2016 09:00 to 8:10 86.92 86.67 87.04 86.67 86.27 85.28
3/23/2016 08:00 to 7:10 85.98 85.15 85.59 84.70 85.24 85.01
3/23/2016 07:00 to 6:10 84.47 84.55 84.34 84.55 84.28 84.57
3/23/2016 06:00 to 5:10 84.24 84.32 84.05 82.99 82.33 82.78
3/23/2016 05:00 to 4:10 82.68 82.18 81.85 82.47 82.45 82.76
3/23/2016 04:00 to 3:10 82.31 83.12 82.72 82.54 82.04 82.37
3/23/2016 03:00 to 2:10 81.64 81.23 82.45 82.16 82.14 80.98
3/23/2016 02:00 to 1:10 82.79 81.91 80.38 81.52 80.83 80.81
3/23/2016 01:00 to 0:10 81.21 80.96 81.37 80.81 80.69 80.75
3/23/2016 00:00 to 23:10 80.46 79.59 79.34 76.99 77.63 77.93
3/22/2016 23:00 to 22:10 78.63 79.38 79.05 79.65 80.35 79.79
3/22/2016 22:00 to 21:10 79.88 80.25 79.46 79.59 79.92 81.19
3/22/2016 21:00 to 20:10 80.83 79.38 81.95 80.50 81.81 81.16
3/22/2016 20:00 to 19:10 81.62 83.16 83.22 83.59 83.68 83.32
3/22/2016 19:00 to 18:10 84.03 84.72 84.76 84.65 84.05 84.36
3/22/2016 18:00 to 17:10 84.49 83.91 83.84 83.41 83.22 82.83
3/22/2016 17:00 to 16:10 82.31 81.98 81.60 81.91 81.85 81.25
3/22/2016 16:00 to 15:10 81.00 82.87 82.06 81.54 81.44 81.91
3/22/2016 15:00 to 14:10 81.14 81.81 82.79 82.93 83.28 82.99
3/22/2016 14:00 to 13:10 84.18 83.16 83.41 84.38 86.19 85.07
3/22/2016 13:00 to 12:10 86.46 84.82 84.97 84.74 84.82 84.69
3/22/2016 12:00 to 11:10 85.96 85.01 85.21 86.58 85.77 86.46
3/22/2016 11:00 to 10:10 85.92 84.55 83.74 86.25 86.63 85.67
3/22/2016 10:00 to 9:10 85.59 85.24 86.54 86.94 87.73 88.18
3/22/2016 09:00 to 8:10 88.99 89.04 88.66 89.33 88.31 88.64
3/22/2016 08:00 to 7:10 87.10 88.00 87.35 87.94 89.10 88.06
3/22/2016 07:00 to 6:10 89.16 89.82 90.03 88.81 88.43 87.81
3/22/2016 06:00 to 5:10 87.02 84.74 85.03 85.19 85.69 86.88
3/22/2016 05:00 to 4:10 87.56 88.16 88.14 89.26 88.50 87.91
3/22/2016 04:00 to 3:10 88.14 88.93 89.68 89.49 88.89 88.79
3/22/2016 03:00 to 2:10 88.91 88.77 87.50 76.68 77.39 75.85
3/22/2016 02:00 to 1:10 75.02 77.78 77.82 78.03 78.69 78.38
3/22/2016 01:00 to 0:10 77.76 78.53 77.07 76.66 75.72 74.13
3/22/2016 00:00 to 23:10 72.92 71.09 71.20 70.16 69.54 69.72
3/21/2016 23:00 to 22:10 70.76 71.51 72.44 70.93 70.18 70.68
3/21/2016 22:00 to 21:10 70.07 69.31 70.99 70.12 70.39 68.93
3/21/2016 21:00 to 20:10 72.63 69.78 67.73 74.06 70.97 75.76
3/21/2016 20:00 to 19:10 74.62 77.65 78.17 77.45 79.55 79.44
3/21/2016 19:00 to 18:10 79.52 79.69 80.33 78.80 79.23 80.73
3/21/2016 18:00 to 17:10 78.84 79.79 80.67 81.95 82.81 83.33
3/21/2016 17:00 to 16:10 83.41 83.62 83.18 82.06 82.74 83.16
3/21/2016 16:00 to 15:10 82.95 83.37 83.72 84.05 83.97 83.33
3/21/2016 15:00 to 14:10 82.45 82.56 81.33 81.77 81.17 80.79
3/21/2016 14:00 to 13:10 81.48 81.16 82.02 82.37 83.39 84.18
3/21/2016 13:00 to 12:10 83.55 86.85 87.13 88.27 88.58 88.33
3/21/2016 12:00 to 11:10 88.48 87.52 88.23 87.42 87.77 86.81
3/21/2016 11:00 to 10:10 87.10 86.21 85.01 85.34 86.32 87.58
3/21/2016 10:00 to 9:10 88.29 87.60 87.85 87.31 87.66 87.29
3/21/2016 09:00 to 8:10 87.29 86.98 87.10 86.32 87.15 86.92
3/21/2016 08:00 to 7:10 87.00 86.36 86.19 85.48 85.44 85.03
3/21/2016 07:00 to 6:10 84.86 85.24 84.51 84.49 84.28 84.86
3/21/2016 06:00 to 5:10 85.03 84.94 85.01 84.76 84.82 85.32
3/21/2016 05:00 to 4:10 85.46 84.13 83.60 83.22 82.06 81.04
3/21/2016 04:00 to 3:10 82.22 81.81 81.37 80.46 77.53 80.98
3/21/2016 03:00 to 2:10 78.26 79.09 80.08 79.59 78.94 79.27
3/21/2016 02:00 to 1:10 80.33 81.04 82.16 81.68 81.95 81.73
3/21/2016 01:00 to 0:10 80.94 79.44 79.30 82.35 81.68 81.06
3/21/2016 00:00 to 23:10 79.98 78.15 80.36 81.46 81.35 80.96
3/20/2016 23:00 to 22:10 81.08 80.35 81.73 80.63 79.81 79.84
3/20/2016 22:00 to 21:10 81.79 81.60 81.33 80.96 80.96 80.73
3/20/2016 21:00 to 20:10 82.33 81.54 82.87 81.37 82.51 83.55
3/20/2016 20:00 to 19:10 82.33 82.83 82.81 82.27 82.62 84.96
3/20/2016 19:00 to 18:10 85.03 85.73 85.90 85.36 85.65 84.72
3/20/2016 18:00 to 17:10 84.67 84.53 84.86 84.80 86.34 86.48
3/20/2016 17:00 to 16:10 86.36 86.13 86.19 85.28 84.30 83.66
3/20/2016 16:00 to 15:10 83.68 85.34 86.13 86.92 85.77 86.19
3/20/2016 15:00 to 14:10 85.80 84.14 83.51 81.25 82.99 83.24
3/20/2016 14:00 to 13:10 83.78 83.80 84.97 84.92 83.14 82.22
3/20/2016 13:00 to 12:10 83.14 83.70 84.74 84.14 85.07 84.84
3/20/2016 12:00 to 11:10 86.34 87.44 87.25 87.29 87.96 87.96
3/20/2016 11:00 to 10:10 88.00 88.27 88.54 88.81 88.45 88.39
3/20/2016 10:00 to 9:10 88.60 88.68 89.14 88.93 88.66 88.31
3/20/2016 09:00 to 8:10 87.81 87.64 87.79 87.17 86.73 87.46
3/20/2016 08:00 to 7:10 87.40 87.79 87.50 87.83 87.89 86.44
3/20/2016 07:00 to 6:10 86.46 85.23 85.82 85.86 85.88 85.40
3/20/2016 06:00 to 5:10 85.21 85.61 85.26 85.77 84.20 84.96
3/20/2016 05:00 to 4:10 85.61 85.78 85.59 85.24 85.32 84.72
3/20/2016 04:00 to 3:10 84.49 82.91 84.34 83.70 84.01 84.18
3/20/2016 03:00 to 2:10 84.05 84.57 83.33 83.39 83.30 81.89
3/20/2016 02:00 to 1:10 82.27 82.33 81.71 81.98 81.56 81.93
3/20/2016 01:00 to 0:10 81.83 81.00 81.12 80.00 79.73 79.55